Polfoss — V2PN7 — position and weather

sailwx.info

Track history (hours):
 
Tides and Currents Weather Stations Pressure Air Temp Water Temp Dewpoint Dewpoint Depression Visibility Wind Speed Wind Dir Waves Ship Positions

Polfoss

Last reported at 2014-Oct-24 14:33 UTC. Time now 2014-Oct-24 15:26 UTC.
Position N 57°09' W 002°05'.

Length 82 m; draft 5.6 m.

Type: Cargo ship. MMSI: 305081000.

Date/timePositionNaut miles runAvg speedWind from/ knotsBaromVisibWave heightAir tempDewpointWater temp
2014-Oct-24 14:33N 57°09' W 002°05'0 0.0
2014-Oct-24 13:33N 57°09' W 002°05'0 0.0
2014-Oct-24 12:33N 57°09' W 002°05'0 0.0
2014-Oct-24 11:33N 57°09' W 002°05'0 0.0
2014-Oct-24 10:33N 57°09' W 002°05'0 0.0
2014-Oct-24 09:33N 57°09' W 002°05'12912.4
2014-Oct-23 23:08N 55°10' W 000°37'915.0
2014-Oct-23 22:33N 55°01' W 000°31'1515.3
2014-Oct-23 21:33N 54°47' W 000°22'1615.7
2014-Oct-23 20:34N 54°33' W 000°12'1615.5
2014-Oct-23 19:33N 54°18' W 000°03'1514.9
2014-Oct-23 18:34N 54°04' E 000°07'1414.2
2014-Oct-23 17:34N 53°51' E 000°16'1313.1
2014-Oct-23 16:33N 53°39' E 000°22'1110.7
2014-Oct-23 15:34N 53°34' E 000°06'6 6.4
2014-Oct-23 14:33N 53°35' W 000°04'0 0.3
2014-Oct-23 13:33N 53°35' W 000°04'0 0.0
2014-Oct-23 12:34N 53°35' W 000°04'0 0.0
2014-Oct-23 11:34N 53°35' W 000°04'0 0.0
2014-Oct-23 10:33N 53°35' W 000°04'0 0.0
2014-Oct-23 09:33N 53°35' W 000°04'0 0.0
2014-Oct-23 08:34N 53°35' W 000°04'0 0.0
2014-Oct-23 07:34N 53°35' W 000°04'0 0.0
2014-Oct-23 06:34N 53°35' W 000°04'0 0.0
2014-Oct-23 05:34N 53°35' W 000°04'0 0.0
2014-Oct-23 04:33N 53°35' W 000°04'0 0.0
2014-Oct-23 03:34N 53°35' W 000°04'0 0.0
2014-Oct-23 02:34N 53°35' W 000°04'0 0.0
2014-Oct-23 01:33N 53°35' W 000°04'0 0.0
2014-Oct-23 00:34N 53°35' W 000°04'0 0.0
2014-Oct-22 23:34N 53°35' W 000°04'0 0.0
2014-Oct-22 22:33N 53°35' W 000°04'0 0.0
2014-Oct-22 21:33N 53°35' W 000°04'0 0.0
2014-Oct-22 20:34N 53°35' W 000°04'0 0.0
2014-Oct-22 19:33N 53°35' W 000°04'0 0.0
2014-Oct-22 18:33N 53°35' W 000°04'0 0.0
2014-Oct-22 17:34N 53°35' W 000°04'2 1.9
2014-Oct-22 16:34N 53°35' W 000°01'1 0.8
2014-Oct-22 15:33N 53°36' W 000°01'8 8.0
2014-Oct-22 14:34N 53°33' E 000°12'7 7.3
2014-Oct-22 13:33N 53°30' E 000°23'4310.8
2014-Oct-22 09:33N 53°12' E 001°29'1212.2
2014-Oct-22 08:33N 53°07' E 001°48'1110.3
2014-Oct-22 07:29N 53°02' E 002°04'59 4.2
2014-Oct-21 17:15N 52°38' E 003°34'2 3.1
2014-Oct-21 16:33N 52°37' E 003°37'4 3.7
2014-Oct-21 15:33N 52°35' E 003°42'14 6.6
2014-Oct-21 13:30N 52°31' E 004°04'9 9.2
2014-Oct-21 12:33N 52°30' E 004°18'10 9.5
2014-Oct-21 11:33N 52°28' E 004°33'3 3.4
2014-Oct-21 10:33N 52°28' E 004°39'1 0.8
2014-Oct-21 09:33N 52°28' E 004°40'0 0.0
2014-Oct-21 08:33N 52°28' E 004°40'0 0.0
2014-Oct-21 07:33N 52°28' E 004°40'0 0.0
2014-Oct-21 06:33N 52°28' E 004°40'0 0.0
2014-Oct-21 05:33N 52°28' E 004°40'0 0.0
2014-Oct-21 04:33N 52°28' E 004°40'0 0.0
2014-Oct-21 03:33N 52°28' E 004°40'0 0.0
2014-Oct-21 02:33N 52°28' E 004°40'0 0.0
2014-Oct-21 01:33N 52°28' E 004°40'0 0.0
2014-Oct-21 00:33N 52°28' E 004°40'0 0.0
2014-Oct-20 23:33N 52°28' E 004°40'0 0.0
2014-Oct-20 22:33N 52°28' E 004°40'0 0.0
2014-Oct-20 21:33N 52°28' E 004°40'0 0.0
2014-Oct-20 20:33N 52°28' E 004°40'0 0.0
2014-Oct-20 19:33N 52°28' E 004°40'0 0.0
2014-Oct-20 18:33N 52°28' E 004°40'0 0.0
2014-Oct-20 17:33N 52°28' E 004°40'0 0.0
2014-Oct-20 16:33N 52°28' E 004°40'0 0.0
2014-Oct-20 15:33N 52°28' E 004°40'0 0.0
2014-Oct-20 14:33N 52°28' E 004°40'0 0.0
2014-Oct-20 13:33N 52°28' E 004°40'0 0.0
2014-Oct-20 12:33N 52°28' E 004°40'0 0.0
2014-Oct-20 11:33N 52°28' E 004°40'0 0.0
2014-Oct-20 10:33N 52°28' E 004°40'0 0.0
2014-Oct-20 09:33N 52°28' E 004°40'0 0.0
2014-Oct-20 08:33N 52°28' E 004°40'0 0.0
2014-Oct-20 07:34N 52°28' E 004°40'0 0.0
2014-Oct-20 06:33N 52°28' E 004°40'0 0.0
2014-Oct-20 05:33N 52°28' E 004°40'2 2.4
2014-Oct-20 04:33N 52°28' E 004°36'6 5.6
2014-Oct-20 03:33N 52°31' E 004°28'1111.1
2014-Oct-20 02:33N 52°42' E 004°29'8210.2
2014-Oct-19 18:32N 54°02' E 004°51'24611.7
2014-Oct-18 21:30N 58°06' E 005°56'910.0
2014-Oct-18 20:33N 58°16' E 005°58'1110.8
2014-Oct-18 19:33N 58°26' E 005°59'0 0.2
2014-Oct-18 18:33N 58°26' E 005°59'3 3.3
2014-Oct-18 17:34N 58°23' E 005°60'1010.2
2014-Oct-18 16:33N 58°29' E 005°44'2210.8
2014-Oct-18 14:33N 58°48' E 005°23'1110.5
2014-Oct-18 13:33N 58°58' E 005°20'1010.4
2014-Oct-18 12:33N 59°09' E 005°17'0 0.3
2014-Oct-18 11:33N 59°09' E 005°16'4 4.1
2014-Oct-18 10:33N 59°12' E 005°20'1212.3
2014-Oct-18 09:33N 59°24' E 005°16'360 8.0
2014-Oct-16 12:33N 64°46' E 011°02'1313.4
2014-Oct-16 11:33N 64°55' E 011°25'1413.8
2014-Oct-16 10:33N 65°05' E 011°47'8013.2
2014-Oct-16 04:31N 66°20' E 012°57'  
Track history (hours):
 
Tides and Currents Weather Stations Pressure Air Temp Water Temp Dewpoint Dewpoint Depression Visibility Wind Speed Wind Dir Waves Ship Positions

Polfoss

Last reported at 2014-Oct-24 14:33 UTC. Time now 2014-Oct-24 15:26 UTC.
Position N 57°09' W 002°05'.

Length 82 m; draft 5.6 m.

Type: Cargo ship. MMSI: 305081000.

Date/timePositionNaut miles runAvg speedWind from/ knotsBaromVisibWave heightAir tempDewpointWater temp
2014-Oct-24 14:33N 57°09' W 002°05'0 0.0
2014-Oct-24 13:33N 57°09' W 002°05'0 0.0
2014-Oct-24 12:33N 57°09' W 002°05'0 0.0
2014-Oct-24 11:33N 57°09' W 002°05'0 0.0
2014-Oct-24 10:33N 57°09' W 002°05'0 0.0
2014-Oct-24 09:33N 57°09' W 002°05'12912.4
2014-Oct-23 23:08N 55°10' W 000°37'915.0
2014-Oct-23 22:33N 55°01' W 000°31'1515.3
2014-Oct-23 21:33N 54°47' W 000°22'1615.7
2014-Oct-23 20:34N 54°33' W 000°12'1615.5
2014-Oct-23 19:33N 54°18' W 000°03'1514.9
2014-Oct-23 18:34N 54°04' E 000°07'1414.2
2014-Oct-23 17:34N 53°51' E 000°16'1313.1
2014-Oct-23 16:33N 53°39' E 000°22'1110.7
2014-Oct-23 15:34N 53°34' E 000°06'6 6.4
2014-Oct-23 14:33N 53°35' W 000°04'0 0.3
2014-Oct-23 13:33N 53°35' W 000°04'0 0.0
2014-Oct-23 12:34N 53°35' W 000°04'0 0.0
2014-Oct-23 11:34N 53°35' W 000°04'0 0.0
2014-Oct-23 10:33N 53°35' W 000°04'0 0.0
2014-Oct-23 09:33N 53°35' W 000°04'0 0.0
2014-Oct-23 08:34N 53°35' W 000°04'0 0.0
2014-Oct-23 07:34N 53°35' W 000°04'0 0.0
2014-Oct-23 06:34N 53°35' W 000°04'0 0.0
2014-Oct-23 05:34N 53°35' W 000°04'0 0.0
2014-Oct-23 04:33N 53°35' W 000°04'0 0.0
2014-Oct-23 03:34N 53°35' W 000°04'0 0.0
2014-Oct-23 02:34N 53°35' W 000°04'0 0.0
2014-Oct-23 01:33N 53°35' W 000°04'0 0.0
2014-Oct-23 00:34N 53°35' W 000°04'0 0.0
2014-Oct-22 23:34N 53°35' W 000°04'0 0.0
2014-Oct-22 22:33N 53°35' W 000°04'0 0.0
2014-Oct-22 21:33N 53°35' W 000°04'0 0.0
2014-Oct-22 20:34N 53°35' W 000°04'0 0.0
2014-Oct-22 19:33N 53°35' W 000°04'0 0.0
2014-Oct-22 18:33N 53°35' W 000°04'0 0.0
2014-Oct-22 17:34N 53°35' W 000°04'2 1.9
2014-Oct-22 16:34N 53°35' W 000°01'1 0.8
2014-Oct-22 15:33N 53°36' W 000°01'8 8.0
2014-Oct-22 14:34N 53°33' E 000°12'7 7.3
2014-Oct-22 13:33N 53°30' E 000°23'4310.8
2014-Oct-22 09:33N 53°12' E 001°29'1212.2
2014-Oct-22 08:33N 53°07' E 001°48'1110.3
2014-Oct-22 07:29N 53°02' E 002°04'59 4.2
2014-Oct-21 17:15N 52°38' E 003°34'2 3.1
2014-Oct-21 16:33N 52°37' E 003°37'4 3.7
2014-Oct-21 15:33N 52°35' E 003°42'14 6.6
2014-Oct-21 13:30N 52°31' E 004°04'9 9.2
2014-Oct-21 12:33N 52°30' E 004°18'10 9.5
2014-Oct-21 11:33N 52°28' E 004°33'3 3.4
2014-Oct-21 10:33N 52°28' E 004°39'1 0.8
2014-Oct-21 09:33N 52°28' E 004°40'0 0.0
2014-Oct-21 08:33N 52°28' E 004°40'0 0.0
2014-Oct-21 07:33N 52°28' E 004°40'0 0.0
2014-Oct-21 06:33N 52°28' E 004°40'0 0.0
2014-Oct-21 05:33N 52°28' E 004°40'0 0.0
2014-Oct-21 04:33N 52°28' E 004°40'0 0.0
2014-Oct-21 03:33N 52°28' E 004°40'0 0.0
2014-Oct-21 02:33N 52°28' E 004°40'0 0.0
2014-Oct-21 01:33N 52°28' E 004°40'0 0.0
2014-Oct-21 00:33N 52°28' E 004°40'0 0.0
2014-Oct-20 23:33N 52°28' E 004°40'0 0.0
2014-Oct-20 22:33N 52°28' E 004°40'0 0.0
2014-Oct-20 21:33N 52°28' E 004°40'0 0.0
2014-Oct-20 20:33N 52°28' E 004°40'0 0.0
2014-Oct-20 19:33N 52°28' E 004°40'0 0.0
2014-Oct-20 18:33N 52°28' E 004°40'0 0.0
2014-Oct-20 17:33N 52°28' E 004°40'0 0.0
2014-Oct-20 16:33N 52°28' E 004°40'0 0.0
2014-Oct-20 15:33N 52°28' E 004°40'0 0.0
2014-Oct-20 14:33N 52°28' E 004°40'0 0.0
2014-Oct-20 13:33N 52°28' E 004°40'0 0.0
2014-Oct-20 12:33N 52°28' E 004°40'0 0.0
2014-Oct-20 11:33N 52°28' E 004°40'0 0.0
2014-Oct-20 10:33N 52°28' E 004°40'0 0.0
2014-Oct-20 09:33N 52°28' E 004°40'0 0.0
2014-Oct-20 08:33N 52°28' E 004°40'0 0.0
2014-Oct-20 07:34N 52°28' E 004°40'0 0.0
2014-Oct-20 06:33N 52°28' E 004°40'0 0.0
2014-Oct-20 05:33N 52°28' E 004°40'2 2.4
2014-Oct-20 04:33N 52°28' E 004°36'6 5.6
2014-Oct-20 03:33N 52°31' E 004°28'1111.1
2014-Oct-20 02:33N 52°42' E 004°29'8210.2
2014-Oct-19 18:32N 54°02' E 004°51'24611.7
2014-Oct-18 21:30N 58°06' E 005°56'910.0
2014-Oct-18 20:33N 58°16' E 005°58'1110.8
2014-Oct-18 19:33N 58°26' E 005°59'0 0.2
2014-Oct-18 18:33N 58°26' E 005°59'3 3.3
2014-Oct-18 17:34N 58°23' E 005°60'1010.2
2014-Oct-18 16:33N 58°29' E 005°44'2210.8
2014-Oct-18 14:33N 58°48' E 005°23'1110.5
2014-Oct-18 13:33N 58°58' E 005°20'1010.4
2014-Oct-18 12:33N 59°09' E 005°17'0 0.3
2014-Oct-18 11:33N 59°09' E 005°16'4 4.1
2014-Oct-18 10:33N 59°12' E 005°20'1212.3
2014-Oct-18 09:33N 59°24' E 005°16'360 8.0
2014-Oct-16 12:33N 64°46' E 011°02'1313.4
2014-Oct-16 11:33N 64°55' E 011°25'1413.8
2014-Oct-16 10:33N 65°05' E 011°47'8013.2
2014-Oct-16 04:31N 66°20' E 012°57'  

Dump ship's entire track history